Marco Lazzaro

C.U.S. PADOVA
15-05-1995


Informazioni sul tesseramento aggiornate al 2019


Condividi con
Seguici su:


60 piani

Anno Data Tipo Cr. Cat. Piazz. Prestaz. Vento Città  
200701/09PMRM4 se- 1 9.2Padova
200712/05PMRM6 se- 2 9.4Montebelluna
 

300 piani

Anno Data Tipo Cr. Cat. Piazz. Prestaz. Vento Città  
200912/09PMCM6 se- 3 44.7Padova
 

400 metri

Anno Data Tipo Cr. Cat. Piazz. Prestaz. Vento Città  
201401/05PEJM2 se- 4 53.68Padova
201301/05PMJM1 se- 8 53.8Padova
 

600 metri

Anno Data Tipo Cr. Cat. Piazz. Prestaz. Vento Città  
200806/09PERM5 se- 1 1:43.22Majano
200724/07PERM11 se- 1 1:45.74Trento
200717/08PERM4 se- 1 1:47.85Cortina
200823/08PERM3 su- 1 1:48.35Cortina
 

800 metri

Anno Data Tipo Cr. Cat. Piazz. Prestaz. Vento Città  
201312/05PEJM2 se- 2 1:59.04Marcon
201216/09PEAM1 se- 3 2:01.09Bassano Del Grappa
201202/09PEAM8 se- 1 2:03.71Rossano Veneto
201213/05PEAM5 se- 3 2:03.74Abano Terme
201108/05PEAM6 se- 1 2:03.76Rovigo
201411/05PEJM8 se- 2 2:03.86Vicenza
201314/04PEJM6 se- 6 2:04.50Vicenza
201110/04PEAM2 se- 3 2:07.22Marcon
201608/05PEPM3 se- 6 2:07.24Vicenza
201101/07PEAM5 su- 1 2:08.26Abano Terme
201625/04PEPM2 se- 6 2:08.28Padova
 

1000 metri

Anno Data Tipo Cr. Cat. Piazz. Prestaz. Vento Città  
201118/05PEAM3 se- 1 2:42.50Padova
201014/07PECM5 se- 1 2:45.49Conegliano
201005/09PECM6 se- 2 2:45.74Rossano Veneto
201002/10PMCM1 se- 1 2:46.0Padova
201018/09PECM5 se- 1 2:47.90Mogliano Veneto
201018/07PECM2 se- 1 2:48.96Rovigo
201005/06PECM6 se- 1 2:50.73Rovigo
201008/05PMCM3 se- 1 2:51.7Padova
200919/09PECM4 se- 2 2:54.21Mogliano Veneto
200906/06PECM10 se- 1 2:56.79Vicenza
200909/05PMCM2 se- 1 2:56.8Padova
200925/04PECM8 su- 1 2:56.85Conegliano
200906/09PECM7 se- 2 2:57.40Rossano Veneto
200915/07PECM13 se- 1 2:58.87Conegliano
200808/06PMRM2 se- 1 3:01.2Borgoricco
200810/05PMRM2 su- 1 3:04.2Padova
200821/09PMRM7 se- 1 3:05.2Vicenza
200706/10PERM3 su- 1 3:08.29Mestre
200812/04PMRM1 su- 1 3:08.4Padova
200723/09PMRM10 se- 1 3:09.4Legnago
200707/08PERM12 se- 1 3:10.51Trento
200710/06PMRM4 se- 1 3:11.9Belluno
200731/07PERM9 se- 1 3:13.21Trento
200713/05PMRM3 se- 1 3:13.7Montebelluna
200722/06PERM4 se- 1 3:15.93Abano Terme
200719/05PMRM2 su- 1 3:16.2Padova
200715/04PMRM3 se- 1 3:16.7Padova
200701/09PMRM2 se- 1 3:19.4Padova
200702/06PMRM3 se- 1 3:20.4Piombino Dese
 

1500 metri

Anno Data Tipo Cr. Cat. Piazz. Prestaz. Vento Città  
201226/05PEAM1 su- 1 4:10.54Vicenza
201121/05PEAM4 se- 1 4:11.22Vicenza
201215/09PEAM4 se- 2 4:11.94Bassano Del Grappa
201212/05PEAM2 se- 2 4:12.56Abano Terme
201107/05PEAM2 se- 2 4:12.66Rovigo
201101/10PEAM12 su- 1 4:13.06Rieti
201114/05PEAM7 se- 2 4:13.29Marcon
201229/09PEAM11 su- 1 4:14.14Firenze
201119/07PEAM12 se- 4 4:14.37Trento
201117/09PEAM4 su- 1 4:14.71Bassano Del Grappa
201206/05PEAM13 se- 1 4:21.51Marcon
 

2000 metri

Anno Data Tipo Cr. Cat. Piazz. Prestaz. Vento Città  
201019/09PECM3 se- 1 5:56.30Mogliano Veneto
201011/09PMCM2 se- 1 6:00.8Padova
201009/10PECM10 se- 2 6:04.81Cles
201006/06PECM2 se- 1 6:14.81Rovigo
200920/09PECM11 su- 1 6:27.36Mogliano Veneto
200901/09PMCM2 se- 1 6:33.9Voltabarozzo
200907/06PECM11 se- 1 6:36.44Vicenza
 

3000 metri

Anno Data Tipo Cr. Cat. Piazz. Prestaz. Vento Città  
201208/06PEAM6 su- 1 9:09.51Roncade
201102/08PEAM3 se- 6 9:22.04Trento
201118/09PEAM4 su- 1 9:24.66Bassano Del Grappa
 

Corsa strada Km 10

Anno Data Tipo Cr. Cat. Piazz. Prestaz. Vento Città  
201809/09SMSM98 su- 1 41:50San Giorgio D.pertiche
 

Attenzione: le schede-atleti sono composte automaticamente sulla base dei dati inseriti all'interno degli archivi nazionali aggiornati dal 2005 al 12-11-2019. Se un risultato non compare nelle graduatorie, quindi, è segno che lo stesso, con ogni probabilità, non è stato ancora inserito. Il processo di inserimento è di competenza dei Comitati Regionali sul cui territorio ha avuto luogo la manifestazione: eventuali segnalazioni per errori od omissioni, vanno dunque indirizzate agli stessi (potete utilizzare l'elenco con relativi contatti). Considerato però che solo le principali manifestazioni nazionali sono oggetto di inserimenti "in diretta" (sul posto di gara), mentre le altre, incluse le internazionali in programma all'estero, vengono inserite in tempi successivi, è opportuno attendere un ragionevole lasso di tempo prima di procedere ad una segnalazione.

Stickers


Non ventosi

GaraTipoPrestazioneVentoAnnoCittà
60 pianiPista 9.22007Padova
300 pianiPista 44.72009Padova
400 metriPista 53.682014Padova
600 metriPista 1:43.222008Majano
800 metriPista 1:59.042013Marcon
1000 metriPista 2:42.502011Padova
1500 metriPista 4:10.542012Vicenza
2000 metriPista 5:56.302010Mogliano Veneto
3000 metriPista 9:09.512012Roncade
Corsa strada Km 10Strada 41:502018San Giorgio D.pertiche

AnnoTipo mov.CategoriaSocietà
2019RinnovoSeniores MaschileC.U.S. PADOVA
2018RinnovoSeniores MaschileC.U.S. PADOVA
2017RinnovoPromesse MaschileATLETICA CITTA' DI PADOVA
2016RinnovoPromesse MaschileATLETICA CITTA' DI PADOVA
2015RinnovoPromesse MaschileATLETICA CITTA' DI PADOVA
2014RinnovoJuniores MaschileATLETICA CITTA' DI PADOVA
2013RinnovoJuniores MaschileATLETICA CITTA' DI PADOVA
2012RinnovoAllieviATLETICA CITTA' DI PADOVA
2011RinnovoAllieviATLETICA CITTA' DI PADOVA
2010TrasferimentoCadettiATLETICA CITTA' DI PADOVA
2009RinnovoCadettiATLETICA VIS ABANO
2008RinnovoRagazzi MaschileATLETICA VIS ABANO
2007RinnovoRagazzi MaschileATLETICA VIS ABANO
2006RinnovoEsordienti MaschileATLETICA VIS ABANO
2005NuovoEsordienti MaschileATLETICA VIS ABANO